Location: Little Baddow
(51.7333°N, 0.5667°E)
Time: 00:19:00
(UTC+00:00)

Cosmos 1980 Rocket - Pass Details

Date: 08 November 2025
Orbit: 829 x 848 km, 71.0° (Epoch: 04 December)

Event Time Altitude Azimuth Distance (km) Brightness Sun altitude
Exits shadow 03:28:05 18° 1° (N) 1,989 4.2 -33.4°
Drops below altitude 10° 03:29:58 10° 17° (NNE) 2,476 4.9 -33.1°
Sets 03:32:53 0° 30° (NNE) 3,411 5.9 -32.7°
